Location: Unspecified
(34.4950°S, 58.5160°W)
Time: 23:26:47
(UTC+00:00)

Cosmos 2315 Rocket - Pass Details

Date: 19 April 2026
Orbit: 965 x 1001 km, 82.9° (Epoch: 16 May)

Event Time Altitude Azimuth Distance (km) Brightness Sun altitude
Rises 08:24:17 0° 193° (SSW) 3,697 6.9 -24.6°
Reaches altitude 10° 08:26:51 10° 197° (SSW) 2,747 6.2 -24.1°
Maximum altitude 08:32:55 51° 271° (W) 1,222 4.1 -22.8°
Drops below altitude 10° 08:38:57 10° 345° (NNW) 2,739 6.2 -21.6°
Sets 08:41:32 0° 350° (N) 3,685 6.9 -21.0°
